Stations météo

réclame
Mon MeteoGroup
Altnaharra, Grande-Bretagne (3044): Température de l'air & dewpoint: 03.07.2020 08:00:00 - 09.07.2020 08:00:00 (BST)Altnaharra, Grande-Bretagne (3044): Température de l'air -20cm & Température de l'air -100cm: 03.07.2020 08:00:00 - 09.07.2020 08:00:00 (BST)Altnaharra, Grande-Bretagne (3044): Vitesse du vent & gusts: 03.07.2020 08:00:00 - 09.07.2020 08:00:00 (BST)Altnaharra, Grande-Bretagne (3044): Direction du vent: 03.07.2020 08:00:00 - 09.07.2020 08:00:00 (BST)Altnaharra, Grande-Bretagne (3044): reduced air pressure: 03.07.2020 08:00:00 - 09.07.2020 08:00:00 (BST)Altnaharra, Grande-Bretagne (3044): visibility: 03.07.2020 08:00:00 - 09.07.2020 08:00:00 (BST)Altnaharra, Grande-Bretagne (3044): Ensoleillement: 03.07.2020 08:00:00 - 09.07.2020 08:00:00 (BST)Altnaharra, Grande-Bretagne (3044): Quantités de précipitations: 03.07.2020 08:00:00 - 09.07.2020 08:00:00 (BST)
Date & Time tt [°C] td [°C] tt -20cm [°C] tt -100cm [°C] ff [km/h] ff [knt] fx [km/h] fx [knt] dd ppp [hPa] vv [km] sd [min] rr [mm]
09.07.2020 08:00:00 10,5 9,3 - - 4 2 - - E 1014,6 50 6 0,0
09.07.2020 07:00:00 8,1 7,9 - - 4 2 - - WSW 1014,4 50 0 0,0
09.07.2020 06:00:00 6,8 6,7 - - 2 1 - - NW 1014,4 50 0 0,0
09.07.2020 05:00:00 6,1 5,9 - - 2 1 - - NW 1014,4 50 0 0,0
09.07.2020 04:00:00 5,8 5,5 - - 2 1 - - WNW 1014,5 45 0 0,0
09.07.2020 03:00:00 5,9 5,6 - - 2 1 - - SE 1014,8 50 0 0,0
09.07.2020 02:00:00 5,5 5,2 - - 4 2 - - W 1014,9 50 0 0,0
09.07.2020 01:00:00 4,7 4,3 - - 4 2 - - WNW 1015,0 50 - 0,0
09.07.2020 00:00:00 5,2 4,3 - - 5 3 - - NW 1015,3 45 0 0,0
08.07.2020 23:00:00 7,2 5,7 - - 5 3 - - W 1015,1 50 0 0,0
08.07.2020 22:00:00 9,9 7,6 - - 9 5 - - WSW 1015,0 50 0 0,0
08.07.2020 21:00:00 11,0 8,7 - - 5 3 - - WNW 1014,8 50 0 0,2
08.07.2020 20:00:00 12,4 8,4 - - 4 2 - - NE 1014,8 50 0 0,0
08.07.2020 19:00:00 13,9 6,3 - - 13 7 - - NNE 1014,6 45 6 0,0
08.07.2020 18:00:00 14,8 5,8 - - 13 7 - - N 1014,8 40 6 0,0
08.07.2020 17:00:00 14,8 5,9 - - 8 4 - - NNE 1015,2 40 12 0,0
08.07.2020 16:00:00 14,5 5,8 - - 15 8 - - N 1015,4 45 12 0,0
08.07.2020 15:00:00 15,1 4,8 - - 5 3 - - NNW 1015,6 50 6 0,0
08.07.2020 14:00:00 14,7 4,7 - - 5 3 - - WNW 1015,7 50 6 0,0
08.07.2020 13:00:00 14,1 4,3 - - 4 2 - - WSW 1016,0 45 0 0,0
08.07.2020 12:00:00 13,6 4,2 - - 5 3 - - W 1016,3 50 0 0,0
08.07.2020 11:00:00 12,3 2,8 - - 4 2 - - NNE 1016,6 50 12 0,0
08.07.2020 10:00:00 13,0 4,8 13,0 12,5 4 2 - - N 1016,4 40 60 0,0
08.07.2020 09:00:00 9,6 8,9 - - 2 1 - - W 1016,6 45 60 0,0
08.07.2020 08:00:00 5,8 5,8 - - 2 1 - - W 1016,9 35 18 0,0
08.07.2020 07:00:00 2,6 2,6 - - 4 2 - - WNW 1017,1 35 0 0,0
08.07.2020 06:00:00 0,4 0,3 - - 4 2 - - W 1017,1 35 0 0,0
08.07.2020 05:00:00 -0,2 -0,4 - - 4 2 - - WNW 1017,1 23 0 0,0
08.07.2020 04:00:00 -0,1 -0,2 - - 4 2 - - W 1017,2 0,4 0 0,0
08.07.2020 03:00:00 0,0 -0,3 - - 5 3 - - W 1017,4 0,6 0 0,0
08.07.2020 02:00:00 1,3 1,0 - - 4 2 - - WNW 1017,5 25 0 0,0
08.07.2020 01:00:00 1,8 1,4 - - 4 2 - - WNW 1017,5 0,8 - 0,0
08.07.2020 00:00:00 3,2 2,5 - - 4 2 - - W 1017,5 3,0 0 0,0
07.07.2020 23:00:00 4,9 3,3 - - 4 2 - - WNW 1017,3 30 0 0,0
07.07.2020 22:00:00 8,0 4,6 - - 4 2 - - N 1016,9 45 48 0,0
07.07.2020 21:00:00 10,1 5,3 - - 13 7 - - NW 1016,5 35 60 0,0
07.07.2020 20:00:00 11,2 5,8 - - 15 8 - - NW 1016,4 40 6 0,0
07.07.2020 19:00:00 11,4 5,9 - - 15 8 - - NW 1016,2 30 6 0,0
07.07.2020 18:00:00 11,9 6,3 - - 15 8 - - NW 1016,0 40 0 0,0
07.07.2020 17:00:00 12,0 6,3 - - 16 9 - - NNW 1016,0 30 0 0,0
07.07.2020 16:00:00 12,6 7,2 - - 16 9 - - NW 1015,9 30 6 0,0
07.07.2020 15:00:00 12,5 5,9 - - 16 9 - - NW 1015,8 45 18 0,0
07.07.2020 14:00:00 12,9 7,1 - - 21 11 - - NW 1015,7 35 18 0,0
07.07.2020 13:00:00 13,1 7,5 - - 16 9 - - NW 1015,4 45 18 0,0
07.07.2020 12:00:00 11,7 6,8 - - 16 9 - - NW 1015,3 28 0 0,0
07.07.2020 11:00:00 11,5 6,1 - - 15 8 - - WNW 1015,3 30 0 0,0
07.07.2020 10:00:00 10,6 7,4 13,2 12,7 16 9 - - WNW 1015,2 26 6 0,0
07.07.2020 09:00:00 11,3 6,6 - - 18 10 - - W 1014,9 50 48 0,0
07.07.2020 08:00:00 10,5 7,0 - - 9 5 - - SW 1015,0 50 30 0,0
07.07.2020 07:00:00 9,6 8,3 - - 8 4 - - SW 1015,1 30 0 0,0
07.07.2020 06:00:00 8,7 7,6 - - 2 1 - - S 1015,0 35 0 0,0
07.07.2020 05:00:00 8,4 7,8 - - 2 1 - - NE 1015,1 40 0 0,0
07.07.2020 04:00:00 8,5 7,7 - - 13 7 - - W 1015,1 40 0 0,0
07.07.2020 03:00:00 8,7 7,9 - - 9 5 - - WSW 1015,2 30 0 0,0
07.07.2020 02:00:00 9,1 8,6 - - 13 7 - - W 1015,1 30 0 0,2
07.07.2020 01:00:00 9,1 8,6 - - 15 8 - - W 1015,2 4,7 - 0,8
07.07.2020 00:00:00 9,6 9,0 - - 16 9 - - WNW 1015,1 5 0 2,0
06.07.2020 23:00:00 9,8 8,7 - - 16 9 - - W 1015,1 7 0 1,0
06.07.2020 22:00:00 10,4 8,4 - - 24 13 - - W 1015,1 10 0 0,0
06.07.2020 21:00:00 10,6 8,0 - - 22 12 46 25 WSW 1015,1 45 6 0,0
06.07.2020 20:00:00 10,6 9,2 - - 26 14 - - W 1015,1 10 0 0,8
06.07.2020 19:00:00 11,3 8,4 - - 26 14 54 29 WSW 1015,0 10 6 0,2
06.07.2020 18:00:00 12,4 6,7 - - 29 16 52 28 WSW 1015,0 40 18 0,0
06.07.2020 17:00:00 12,0 7,1 - - 26 14 54 29 WSW 1015,4 45 0 0,0
06.07.2020 16:00:00 11,9 6,9 - - 26 14 54 29 WSW 1015,5 50 0 0,0
06.07.2020 15:00:00 12,8 6,8 - - 34 18 50 27 WSW 1015,4 35 18 0,0
06.07.2020 14:00:00 12,3 8,7 - - 22 12 50 27 WSW 1015,2 50 18 0,0
06.07.2020 13:00:00 13,1 7,7 - - 28 15 48 26 W 1015,0 30 36 0,0
06.07.2020 12:00:00 12,9 7,4 - - 34 18 - - W 1014,5 35 42 0,0
06.07.2020 11:00:00 12,6 8,6 - - 26 14 - - W 1014,2 30 18 0,0
06.07.2020 10:00:00 11,3 6,5 13,5 12,7 28 15 - - WNW 1013,7 45 18 0,2
06.07.2020 09:00:00 9,6 7,6 - - 22 12 - - W 1013,2 30 6 0,0
06.07.2020 08:00:00 9,4 6,0 - - 26 14 - - WNW 1012,4 45 12 0,0
06.07.2020 07:00:00 9,5 7,4 - - 29 16 - - WNW 1011,1 21 0 0,2
06.07.2020 06:00:00 9,6 8,1 - - 16 9 - - WNW 1009,8 30 0 0,2
06.07.2020 05:00:00 9,4 7,9 - - 26 14 - - WNW 1008,5 30 0 0,2
06.07.2020 04:00:00 9,7 8,2 - - 28 15 - - WNW 1007,1 28 0 0,0
06.07.2020 03:00:00 9,7 8,4 - - 24 13 46 25 WNW 1005,9 20 0 0,4
06.07.2020 02:00:00 10,2 8,7 - - 22 12 - - WNW 1004,7 35 0 0,0
06.07.2020 01:00:00 9,9 8,1 - - 21 11 - - WNW 1003,6 45 - 0,2
06.07.2020 00:00:00 9,5 8,7 - - 11 6 - - W 1001,9 13 0 0,8
05.07.2020 23:00:00 9,3 8,4 - - 11 6 - - W 1001,1 50 0 0,4
05.07.2020 22:00:00 9,7 8,7 - - 16 9 - - W 1000,3 8 0 1,0
05.07.2020 21:00:00 10,1 8,8 - - 16 9 - - W 999,3 27 0 0,2
05.07.2020 20:00:00 10,1 8,7 - - 22 12 - - W 998,3 40 6 0,0
05.07.2020 19:00:00 11,5 8,6 - - 22 12 - - WNW 997,3 50 6 0,0
05.07.2020 18:00:00 12,4 9,1 - - 18 10 - - W 996,5 50 12 0,2
05.07.2020 17:00:00 13,3 9,4 - - 15 8 - - WSW 995,6 30 24 0,0
05.07.2020 16:00:00 12,1 8,2 - - 24 13 - - W 995,3 35 6 0,4
05.07.2020 15:00:00 11,0 8,4 - - 21 11 - - WSW 995,1 23 0 0,0
05.07.2020 14:00:00 12,1 9,2 - - 26 14 - - WSW 994,6 28 0 0,2
05.07.2020 13:00:00 11,3 8,4 - - 16 9 - - W 994,2 40 0 0,0
05.07.2020 12:00:00 11,5 8,0 - - 22 12 - - WSW 994,2 50 0 0,2
05.07.2020 11:00:00 10,7 7,6 - - 24 13 - - WSW 994,0 45 0 0,0
05.07.2020 10:00:00 10,7 7,6 13,9 12,7 15 8 - - SW 993,6 50 0 0,0
05.07.2020 09:00:00 10,4 7,6 - - 15 8 - - WSW 993,5 50 0 0,0
05.07.2020 08:00:00 10,3 7,8 - - 16 9 - - WSW 993,0 40 0 0,0
05.07.2020 07:00:00 9,1 8,3 - - 13 7 - - W 992,9 50 0 0,0
05.07.2020 06:00:00 9,0 8,5 - - 4 2 - - SW 992,4 50 0 0,0
05.07.2020 05:00:00 8,4 8,1 - - 2 1 - - W 992,0 50 0 0,2
05.07.2020 04:00:00 8,8 8,5 - - 8 4 - - W 992,0 25 0 0,8
05.07.2020 03:00:00 8,8 8,5 - - 8 4 - - WSW 992,3 16 0 0,4
05.07.2020 02:00:00 8,9 8,6 - - 2 1 - - NNW 992,6 6 0 1,6
05.07.2020 01:00:00 9,0 8,7 - - 4 2 - - WNW 993,6 10 - 4,0
05.07.2020 00:00:00 9,4 8,9 - - 5 3 - - WNW 994,7 10 0 3,2
04.07.2020 23:00:00 9,6 8,9 - - 2 1 - - ESE 995,4 13 0 1,0
04.07.2020 22:00:00 10,1 8,6 - - 9 5 - - SE 997,0 11 0 0,4
04.07.2020 21:00:00 11,0 8,4 - - 8 4 - - SSE 997,4 50 0 0,0
04.07.2020 20:00:00 12,1 8,0 - - 11 6 - - S 998,8 50 0 0,0
04.07.2020 19:00:00 13,2 7,4 - - 9 5 - - SSW 999,1 50 6 0,0
04.07.2020 18:00:00 13,1 7,9 - - 11 6 - - S 999,5 50 12 0,0
04.07.2020 17:00:00 13,6 8,3 - - 11 6 - - SSW 1000,5 40 0 0,0
04.07.2020 16:00:00 13,2 8,8 - - 16 9 - - WSW 1001,1 45 0 0,0
04.07.2020 15:00:00 12,4 8,6 - - 11 6 - - SSW 1001,3 45 0 0,0
04.07.2020 14:00:00 12,4 9,0 - - 9 5 - - SW 1001,3 45 0 0,0
04.07.2020 13:00:00 11,3 9,4 - - 11 6 - - WSW 1001,6 30 0 0,2
04.07.2020 12:00:00 11,8 9,8 - - 11 6 - - S 1001,5 45 0 0,0
04.07.2020 11:00:00 11,3 9,3 - - 9 5 - - S 1001,6 30 0 0,2
04.07.2020 10:00:00 10,9 9,4 14,2 12,7 9 5 - - S 1001,6 16 0 0,4
04.07.2020 09:00:00 11,2 8,3 - - 11 6 - - SSE 1001,8 50 0 0,0
04.07.2020 08:00:00 11,8 9,3 - - 9 5 - - SSE 1001,3 45 0 0,0
04.07.2020 07:00:00 11,1 8,2 - - 11 6 - - S 1001,8 45 0 0,0
04.07.2020 06:00:00 10,5 7,4 - - 9 5 - - S 1001,9 50 0 0,0
04.07.2020 05:00:00 10,5 6,9 - - 9 5 - - SSW 1001,9 45 0 0,0
04.07.2020 04:00:00 10,4 7,8 - - 8 4 - - S 1002,0 50 0 0,0
04.07.2020 03:00:00 8,9 6,9 - - 5 3 - - SE 1002,1 50 0 0,0
04.07.2020 02:00:00 9,7 6,2 - - 4 2 - - SW 1002,0 50 0 0,0
04.07.2020 01:00:00 9,4 7,0 - - 9 5 - - WSW 1002,0 35 - 0,0
04.07.2020 00:00:00 11,0 7,2 - - 5 3 - - SSW 1002,0 50 0 0,0
03.07.2020 23:00:00 11,6 7,5 - - 9 5 - - SSW 1002,0 50 0 0,0
03.07.2020 22:00:00 11,9 8,3 - - 11 6 - - SSW 1001,4 50 0 0,0
03.07.2020 21:00:00 12,2 8,6 - - 16 9 - - SW 1001,1 50 0 0,0
03.07.2020 20:00:00 13,0 9,4 - - 15 8 - - SW 1000,6 50 0 0,0
03.07.2020 19:00:00 12,8 10,5 - - 15 8 - - SW 1000,4 35 0 1,2
03.07.2020 18:00:00 12,4 11,0 - - 9 5 - - SSW 1000,1 40 0 1,2
03.07.2020 17:00:00 11,6 9,6 - - 5 3 - - NNW 1000,1 13 0 0,2
03.07.2020 16:00:00 11,8 9,2 - - 5 3 - - W 1000,5 50 0 0,0
03.07.2020 15:00:00 11,9 8,6 - - 2 1 - - SSW 1000,0 20 0 0,0
03.07.2020 14:00:00 11,6 8,5 - - 8 4 - - NNE 1000,6 8 0 0,0
03.07.2020 13:00:00 11,9 7,1 - - 15 8 - - ESE 1000,8 50 0 0,0
03.07.2020 12:00:00 11,9 6,0 - - 18 10 - - ESE 1001,2 35 0 0,0
03.07.2020 11:00:00 12,5 6,7 - - 15 8 - - ESE 1001,4 40 0 0,0
03.07.2020 10:00:00 12,8 6,2 14,4 12,7 13 7 - - ESE 1001,9 50 36 0,0
03.07.2020 09:00:00 11,7 5,7 - - 5 3 - - S 1002,6 50 6 0,0
03.07.2020 08:00:00 10,5 6,1 - - 5 3 - - WNW 1003,5 50 0 0,0

tt = Température de l'air
td = dewpoint
tt -20cm = Température de l'air -20cm
tt -100cm = Température de l'air -100cm
ff = Vitesse du vent
fx = gusts
dd = Direction du vent
ppp = reduced air pressure
vv = visibility
sd = Ensoleillement
rr = Quantités de précipitations

stations d'obs. à proximité